Tracking 19651 objects as of 23-Apr-2019
HD Live streaming from Space Station
objects crossing your sky now

SUPERBIRD C

Track SUPERBIRD C now!
SUPERBIRD C is classified as:


NORAD ID: 24880
Int'l Code: 1997-036A
Perigee: 36,078.1 km
Apogee: 36,186.5 km
Inclination: 7.8 °
Period: 1,453.4 minutes
Semi major axis: 42503 km
RCS: 12.5892 m2 (large)
Launch date: July 28, 1997
Source: Japan (JPN)
Launch site: AIR FORCE EASTERN TEST RANGE (AFETR)

14 Ku-band; Asia-Pacific region; voice and video communications.
aabbcc
Your satellite tracking list
Your tracking list is empty




NASA's NSSDC Master Catalog

Two Line Element Set (TLE):
1 24880U 97036A   19112.08958916 -.00000249  00000-0  00000+0 0  9992
2 24880   7.7722  50.1411 0012745 299.6446  60.1344  0.99076079 79393
Source of the keplerian elements: AFSPC